Regional Weather Roundup
Issued by NWS Cleveland, OH

Home | Current Version | Previous Version | Graphics & Text | Print | Product List | Glossary On
Versions: 1 2 3 4 5 6 7 8 9 10 11 12 13 14 15 16 17 18 19 20 21 22 23 24 25 26 27 28 29 30 31 32 33 34 35 36 37 38 39 40 41 42 43 44 45 46 47 48 49 50
000
ASUS41 KCLE 310502
RWRCLE
OHIO REGIONAL WEATHER ROUNDUP
NATIONAL WEATHER SERVICE CLEVELAND, OH
1200 AM EST SAT JAN 31 2015

NOTE: "FAIR" INDICATES FEW OR NO CLOUDS BELOW 12,000 FEET WITH NO
SIGNIFICANT WEATHER AND/OR OBSTRUCTIONS TO VISIBILITY.

OHZ001>008-015>018-024>027-034-035-043-044-310600-
   NORTHWEST OHIO

CITY           SKY/WX    TMP DP  RH WIND       PRES   REMARKS
DEFIANCE       PTCLDY    18  12  77 CALM      30.41F
FINDLAY        FAIR      13   7  77 S5        30.39F WCI   5
TOLEDO EXPRESS MOCLDY    14   9  80 CALM      30.40F
TOLEDO EXEC    PTCLDY    18  10  71 S5        30.41F WCI  11
LIMA           CLEAR     16  10  77 S3        30.39F
$$

OHZ009>014-019>023-028>033-038-089-310600-
   NORTHEAST OHIO

CITY           SKY/WX    TMP DP  RH WIND       PRES   REMARKS
CLE-HOPKINS    PTCLDY     8   3  80 S5        30.45S WCI   0
CLE-LAKEFRONT  MOCLDY    14   5  67 CALM      30.43S
CUY CO. ARPT   NOT AVBL
LORAIN-ELYRIA  PTCLDY     7   3  84 S3        30.42S
ASHTABULA      PTCLDY     8   4  83 CALM      30.40S
AKRON-CANTON   MOCLDY     7   2  80 CALM      30.38F
WOOSTER        PTCLDY     0  -4  83 CALM      30.40S
MANSFIELD      PTCLDY     6   3  87 S5        30.38S WCI  -3
YOUNGSTOWN     MOCLDY     8   3  80 W3        30.37S
$$

OHZ042-051>053-060>062-070>072-077>081-310600-
  SOUTHWEST OHIO

CITY           SKY/WX    TMP DP  RH WIND       PRES   REMARKS
CINC-COVINGTON CLEAR     20  14  77 CALM      30.42F
CINC-LUNKEN    CLEAR     18  15  88 CALM      30.47S
HAMILTON       CLEAR     15  12  88 CALM      30.45F
DAYTON         CLEAR     17  12  80 SW3       30.42S
WRIGHT-PAT AFB CLEAR     14  11  86 CALM      30.43R
DAYTON GENERAL CLEAR     19  13  77 S5        30.41F WCI  12
WILMINGTON     CLEAR     17  12  80 CALM      30.41F
$$

OHZ036-037-039>041-045>050-054>059-063>069-073>076-082>088-310600-
  CENTRAL AND SOUTHEAST OHIO

CITY           SKY/WX    TMP DP  RH WIND       PRES   REMARKS
COLUMBUS       MOCLDY    16  10  77 CALM      30.44S
OSU AIRPORT    PTCLDY    14  10  84 CALM      30.42F
BOLTON FIELD   NOT AVBL
RICKENBACK AFB NOT AVBL
NEWARK         FAIR       8   4  83 CALM      30.43S
MARION         PTCLDY     9   4  80 S3        30.41R
LANCASTER      CLEAR     10   7  87 CALM      30.43F
ZANESVILLE     FAIR       7   4  87 CALM      30.43S
NEW PHILLY     PTCLDY     5   1  83 CALM      30.43F
$$


USA.gov is the U.S. government's official web portal to all federal, state and local government web resources and services.